Regional Weather Roundup
Issued by NWS Cleveland, OH

Home | Current Version | Previous Version | Graphics & Text | Print | Product List | Glossary On
Versions: 1 2 3 4 5 6 7 8 9 10 11 12 13 14 15 16 17 18 19 20 21 22 23 24 25 26 27 28 29 30 31 32 33 34 35 36 37 38 39 40 41 42 43 44 45 46 47 48 49 50
841
ASUS41 KCLE 061310
RWRCLE
OHIO REGIONAL WEATHER ROUNDUP
NATIONAL WEATHER SERVICE WILMINGTON, OH
800 AM EST TUE DEC 06 2016

NOTE: "FAIR" INDICATES FEW OR NO CLOUDS BELOW 12,000 FEET WITH NO
SIGNIFICANT WEATHER AND/OR OBSTRUCTIONS TO VISIBILITY.

OHZ001>008-015>018-024>027-034-035-043-044-061400-
   NORTHWEST OHIO

CITY           SKY/WX    TMP DP  RH WIND       PRES   REMARKS
DEFIANCE       MOCLDY    35  28  75 E12       29.80F WCI  27
FINDLAY        FAIR      34  27  75 E7        29.78F WCI  28
TOLEDO EXPRESS FAIR      36  32  85 E15       29.81F
TOLEDO EXEC    FAIR      37  32  82 E12       29.82F
LIMA           CLOUDY    33  31  92 E8        29.76S WCI  26
$$

OHZ009>014-019>023-028>033-038-089-061400-
   NORTHEAST OHIO

CITY           SKY/WX    TMP DP  RH WIND       PRES   REMARKS
CLE-HOPKINS    CLOUDY    38  26  62 E15       29.86F
CLE-LAKEFRONT  FAIR      39  27  62 E9        29.85F
CUY CO. ARPT   CLOUDY    37  30  75 SE14G23   29.86F
LORAIN-ELYRIA  FAIR      34  26  72 SE12      29.82F WCI  25
ASHTABULA      FAIR      35  29  78 SE12      29.91F WCI  27
AKRON-CANTON   MOCLDY    36  27  69 E14       29.84F
WOOSTER        FAIR      34  27  75 E14       29.82F WCI  25
MANSFIELD      FAIR      33  28  81 E10       29.78F WCI  25
YOUNGSTOWN     CLOUDY    35  26  69 E16G24    29.89F WCI  25
$$

OHZ042-051>053-060>062-070>072-077>081-061400-
  SOUTHWEST OHIO

CITY           SKY/WX    TMP DP  RH WIND       PRES   REMARKS
CINC-COVINGTON LGT RAIN  40  39  97 NE9       29.66F FOG
CINC-LUNKEN    LGT RAIN  40  39  97 NE6       29.68F FOG
HAMILTON       LGT RAIN  39  36  89 NE7       29.70F
DAYTON         CLOUDY    36  33  89 E8        29.72F
WRIGHT-PAT AFB LGT RAIN  37  36  97 E8        29.71F
DAYTON GENERAL RAIN      37  34  89 E10       29.68F FOG
WILMINGTON     LGT RAIN  36  35  96 E9        29.69F FOG
$$

OHZ036-037-039>041-045>050-054>059-063>069-073>076-082>088-061400-
  CENTRAL AND SOUTHEAST OHIO

CITY           SKY/WX    TMP DP  RH WIND       PRES   REMARKS
COLUMBUS       LGT RAIN  37  34  89 E12       29.77F
OSU AIRPORT    LGT RAIN  38  33  82 E9        29.76F
BOLTON FIELD   LGT RAIN  36  34  93 E12       29.77S
RICKENBACK AFB CLOUDY    36  34  92 E8        29.76F
NEWARK         LGT RAIN  37  31  78 E6        29.79F
MARION         MOCLDY    36  29  75 SE10      29.77F
LANCASTER      CLOUDY    37  34  89 E10       29.77F
ZANESVILLE     CLOUDY    37  32  82 E9        29.80F
NEW PHILLY     CLOUDY    37  29  72 SE12      29.84F
$$




USA.gov is the U.S. government's official web portal to all federal, state and local government web resources and services.